Location: Callanans Corners
(42.5326°N, 73.8846°W)
Time: 13:39:35
(UTC+00:00)

Cosmos 1428 Rocket - Pass Details

Date: 06 October 2022
Orbit: 947 x 988 km, 82.9° (Epoch: 28 November)

Event Time Altitude Azimuth Distance (km) Brightness Sun altitude
Rises 23:36:52 0° 175° (S) 3,629 7.4 -13.5°
Reaches altitude 10° 23:39:22 10° 172° (S) 2,693 6.7 -13.9°
Maximum altitude 23:45:26 62° 93° (E) 1,089 4.5 -15.0°
Drops below altitude 10° 23:51:36 10° 14° (NNE) 2,738 6.8 -16.2°
Sets 23:54:09 0° 12° (NNE) 3,695 7.5 -16.6°
